TimeCST,TemperatureF,Dew PointF,Humidity,Sea Level PressureIn,VisibilityMPH,Wind Direction,Wind SpeedMPH,Gust SpeedMPH,PrecipitationIn,Events,Conditions,WindDirDegrees,DateUTC
12:53 AM,19.0,16.0,88,30.08,8.0,South,6.9,-,N/A,,Clear,180,2013-11-08 06:53:00
1:53 AM,21.0,18.0,88,30.06,8.0,SSE,4.6,-,N/A,,Clear,160,2013-11-08 07:53:00
2:53 AM,21.9,19.0,89,30.04,8.0,SSE,5.8,-,N/A,,Clear,150,2013-11-08 08:53:00
3:53 AM,24.1,21.0,88,30.01,8.0,SSE,8.1,-,N/A,,Clear,160,2013-11-08 09:53:00
4:53 AM,26.1,23.0,88,29.99,9.0,SSE,9.2,-,N/A,,Mostly Cloudy,150,2013-11-08 10:53:00
5:53 AM,27.0,23.0,85,29.95,10.0,SE,9.2,-,N/A,,Overcast,140,2013-11-08 11:53:00
6:53 AM,28.0,24.1,85,29.91,10.0,SE,10.4,-,N/A,,Overcast,140,2013-11-08 12:53:00
7:53 AM,32.0,26.1,79,29.86,10.0,SE,13.8,-,N/A,,Overcast,140,2013-11-08 13:53:00
8:53 AM,34.0,27.0,75,29.82,10.0,SE,17.3,-,N/A,,Overcast,130,2013-11-08 14:53:00
9:53 AM,37.0,27.0,67,29.79,10.0,SE,13.8,-,N/A,,Overcast,140,2013-11-08 15:53:00
10:53 AM,39.0,27.0,62,29.76,10.0,SE,15.0,-,N/A,,Overcast,130,2013-11-08 16:53:00
11:53 AM,41.0,27.0,57,29.71,10.0,ESE,17.3,-,N/A,,Overcast,120,2013-11-08 17:53:00
12:53 PM,42.1,27.0,55,29.65,10.0,ESE,18.4,27.6,N/A,,Overcast,110,2013-11-08 18:53:00
1:53 PM,41.0,27.0,57,29.64,10.0,SE,20.7,36.8,0.00,Rain,Light Rain,130,2013-11-08 19:53:00
2:53 PM,42.1,24.1,49,29.60,10.0,SE,18.4,-,0.00,,Overcast,140,2013-11-08 20:53:00
3:53 PM,42.1,24.1,49,29.59,10.0,SE,13.8,-,N/A,,Overcast,130,2013-11-08 21:53:00
4:53 PM,39.9,28.9,65,29.58,10.0,SSE,15.0,-,N/A,,Overcast,150,2013-11-08 22:53:00
5:53 PM,39.0,30.9,73,29.59,10.0,SSE,10.4,-,N/A,,Overcast,160,2013-11-08 23:53:00
6:03 PM,37.4,30.2,75,29.56,10.0,SSE,11.5,-,N/A,,Overcast,160,2013-11-09 00:03:00
6:37 PM,35.6,30.2,81,29.57,10.0,SE,10.4,-,N/A,,Overcast,140,2013-11-09 00:37:00
6:53 PM,36.0,32.0,86,29.61,10.0,SE,10.4,-,0.00,Snow,Light Snow,140,2013-11-09 00:53:00
7:53 PM,35.1,32.0,89,29.60,9.0,SSE,5.8,-,0.00,,Overcast,160,2013-11-09 01:53:00
8:48 PM,33.8,32.0,93,29.56,10.0,SE,5.8,-,N/A,,Overcast,130,2013-11-09 02:48:00
8:53 PM,34.0,32.0,92,29.59,9.0,SE,4.6,-,N/A,,Overcast,130,2013-11-09 02:53:00
9:53 PM,34.0,32.0,92,29.58,8.0,SE,4.6,-,N/A,,Overcast,130,2013-11-09 03:53:00
10:53 PM,34.0,30.9,89,29.60,8.0,Calm,Calm,-,N/A,,Overcast,0,2013-11-09 04:53:00
11:53 PM,33.1,30.9,92,29.61,7.0,West,3.5,-,N/A,,Overcast,270,2013-11-09 05:53:00